Time,TemperatureF,DewpointF,PressureIn,WindDirection,WindDirectionDegrees,WindSpeedMPH,WindSpeedGustMPH,Humidity,HourlyPrecipIn,Conditions,Clouds,dailyrainin,SoftwareType,DateUTC
2013-06-19 00:32:00,73.0,63.0,29.91,East,88,1.0,3.0,70,0.00,,,0.00,,2013-06-19 05:32:00,
2013-06-19 00:42:00,73.0,63.0,29.91,East,88,0.0,2.0,70,0.00,,,0.00,,2013-06-19 05:42:00,
2013-06-19 00:52:00,73.0,63.0,29.91,East,88,1.0,2.0,70,0.00,,,0.00,,2013-06-19 05:52:00,
2013-06-19 01:01:00,73.0,62.0,29.91,East,88,0.0,2.0,69,0.00,,,0.00,,2013-06-19 06:01:00,
2013-06-19 01:11:00,73.0,63.0,29.91,East,88,0.0,0.0,72,0.00,,,0.00,,2013-06-19 06:11:00,
2013-06-19 08:12:00,74.0,64.0,29.93,ESE,105,5.0,7.0,71,0.00,,,0.00,,2013-06-19 13:12:00,
2013-06-19 08:22:00,74.0,64.0,29.93,ESE,105,5.0,7.0,71,0.00,,,0.00,,2013-06-19 13:22:00,
2013-06-19 08:33:00,74.0,64.0,29.93,ESE,105,5.0,7.0,71,0.00,,,0.00,,2013-06-19 13:33:00,
2013-06-19 08:42:00,75.0,67.0,29.93,East,96,6.0,9.0,75,0.00,,,0.00,,2013-06-19 13:42:00,
2013-06-19 08:53:00,76.0,69.0,29.93,ESE,112,5.0,8.0,78,0.00,,,0.00,,2013-06-19 13:53:00,
2013-06-19 09:02:00,76.0,69.0,29.93,ESE,107,6.0,9.0,78,0.00,,,0.00,,2013-06-19 14:02:00,
2013-06-19 09:11:00,76.0,69.0,29.93,ESE,107,6.0,9.0,78,0.00,,,0.00,,2013-06-19 14:11:00,
2013-06-19 09:22:00,77.0,71.0,29.94,East,99,5.0,8.0,81,0.00,,,0.00,,2013-06-19 14:22:00,
2013-06-19 09:33:00,77.0,71.0,29.94,East,99,5.0,8.0,81,0.00,,,0.00,,2013-06-19 14:33:00,
2013-06-19 09:43:00,77.0,71.0,29.94,East,99,5.0,8.0,81,0.00,,,0.00,,2013-06-19 14:43:00,
2013-06-19 09:53:00,79.0,73.0,29.94,SE,144,6.0,12.0,82,0.00,,,0.00,,2013-06-19 14:53:00,
2013-06-19 10:01:00,79.0,73.0,29.94,SE,144,6.0,12.0,82,0.00,,,0.00,,2013-06-19 15:01:00,
2013-06-19 10:11:00,79.0,73.0,29.94,SE,144,6.0,12.0,82,0.00,,,0.00,,2013-06-19 15:11:00,
2013-06-19 10:22:00,79.0,73.0,29.94,ESE,118,4.0,9.0,82,0.00,,,0.00,,2013-06-19 15:22:00,
2013-06-19 10:33:00,80.0,74.0,29.94,ESE,111,4.0,7.0,81,0.00,,,0.00,,2013-06-19 15:33:00,
2013-06-19 10:43:00,80.0,74.0,29.94,ESE,111,4.0,7.0,81,0.00,,,0.00,,2013-06-19 15:43:00,
2013-06-19 10:53:00,81.0,75.0,29.94,SE,137,3.0,8.0,81,0.00,,,0.00,,2013-06-19 15:53:00,
2013-06-19 11:01:00,81.0,74.0,29.94,ESE,103,7.0,12.0,79,0.00,,,0.00,,2013-06-19 16:01:00,
2013-06-19 11:11:00,81.0,74.0,29.94,ESE,103,7.0,12.0,79,0.00,,,0.00,,2013-06-19 16:11:00,
2013-06-19 11:22:00,81.0,74.0,29.94,ESE,103,7.0,12.0,79,0.00,,,0.00,,2013-06-19 16:22:00,
2013-06-19 11:34:00,81.0,74.0,29.94,ESE,103,7.0,12.0,79,0.00,,,0.00,,2013-06-19 16:34:00,
2013-06-19 11:43:00,82.0,75.0,29.93,ESE,122,3.0,12.0,79,0.00,,,0.00,,2013-06-19 16:43:00,
2013-06-19 11:53:00,82.0,75.0,29.93,ESE,120,6.0,10.0,80,0.00,,,0.00,,2013-06-19 16:53:00,
2013-06-19 12:02:00,82.0,75.0,29.93,ESE,120,6.0,10.0,80,0.00,,,0.00,,2013-06-19 17:02:00,
2013-06-19 12:12:00,83.0,75.0,29.94,East,83,5.0,12.0,78,0.00,,,0.00,,2013-06-19 17:12:00,
2013-06-19 12:22:00,83.0,75.0,29.94,East,83,5.0,12.0,78,0.00,,,0.00,,2013-06-19 17:22:00,
2013-06-19 12:34:00,83.0,75.0,29.94,East,83,5.0,12.0,78,0.00,,,0.00,,2013-06-19 17:34:00,
2013-06-19 12:43:00,83.0,75.0,29.94,East,83,5.0,12.0,78,0.00,,,0.00,,2013-06-19 17:43:00,
2013-06-19 12:53:00,84.0,76.0,29.93,ESE,103,10.0,14.0,76,0.00,,,0.00,,2013-06-19 17:53:00,
2013-06-19 13:01:00,84.0,76.0,29.93,ESE,103,10.0,14.0,76,0.00,,,0.00,,2013-06-19 18:01:00,
2013-06-19 13:11:00,85.0,76.0,29.93,East,92,6.0,13.0,75,0.00,,,0.00,,2013-06-19 18:11:00,
2013-06-19 13:24:00,85.0,75.0,29.94,East,83,3.0,12.0,72,0.00,,,0.00,,2013-06-19 18:24:00,
2013-06-19 13:33:00,85.0,75.0,29.93,East,84,4.0,10.0,72,0.00,,,0.00,,2013-06-19 18:33:00,
2013-06-19 13:44:00,85.0,75.0,29.93,East,84,4.0,10.0,72,0.00,,,0.00,,2013-06-19 18:44:00,
2013-06-19 13:53:00,86.0,75.0,29.92,ENE,69,5.0,13.0,71,0.00,,,0.00,,2013-06-19 18:53:00,
2013-06-19 14:01:00,86.0,76.0,29.92,ENE,72,7.0,14.0,73,0.00,,,0.00,,2013-06-19 19:01:00,
2013-06-19 14:11:00,86.0,75.0,29.92,ESE,110,10.0,14.0,70,0.00,,,0.00,,2013-06-19 19:11:00,
2013-06-19 14:22:00,86.0,75.0,29.92,ESE,110,10.0,14.0,70,0.00,,,0.00,,2013-06-19 19:22:00,
2013-06-19 14:32:00,86.0,75.0,29.92,ESE,110,10.0,14.0,70,0.00,,,0.00,,2013-06-19 19:32:00,
2013-06-19 14:43:00,86.0,75.0,29.92,ESE,110,10.0,14.0,70,0.00,,,0.00,,2013-06-19 19:43:00,
2013-06-19 14:52:00,86.0,75.0,29.92,ESE,110,10.0,14.0,70,0.00,,,0.00,,2013-06-19 19:52:00,
2013-06-19 15:02:00,88.0,74.0,29.91,SSE,164,2.0,12.0,64,0.00,,,0.00,,2013-06-19 20:02:00,
2013-06-19 15:11:00,88.0,76.0,29.90,ENE,58,8.0,13.0,67,0.00,,,0.00,,2013-06-19 20:11:00,
2013-06-19 15:22:00,89.0,75.0,29.89,ESE,113,11.0,14.0,64,0.00,,,0.00,,2013-06-19 20:22:00,
2013-06-19 15:33:00,89.0,75.0,29.89,ESE,113,11.0,14.0,64,0.00,,,0.00,,2013-06-19 20:33:00,
2013-06-19 15:42:00,89.0,75.0,29.88,SE,139,6.0,14.0,63,0.00,,,0.00,,2013-06-19 20:42:00,
2013-06-19 15:52:00,89.0,75.0,29.87,East,99,8.0,14.0,64,0.00,,,0.00,,2013-06-19 20:52:00,
2013-06-19 16:02:00,89.0,75.0,29.87,East,99,8.0,14.0,64,0.00,,,0.00,,2013-06-19 21:02:00,
2013-06-19 16:11:00,89.0,74.0,29.88,East,88,4.0,12.0,61,0.00,,,0.00,,2013-06-19 21:11:00,
2013-06-19 16:22:00,89.0,74.0,29.88,East,88,4.0,12.0,61,0.00,,,0.00,,2013-06-19 21:22:00,
2013-06-19 16:33:00,89.0,74.0,29.88,East,88,4.0,12.0,61,0.00,,,0.00,,2013-06-19 21:33:00,
2013-06-19 16:44:00,89.0,74.0,29.86,SE,135,7.0,12.0,62,0.00,,,0.00,,2013-06-19 21:44:00,
2013-06-19 16:52:00,90.0,73.0,29.86,ESE,119,10.0,12.0,58,0.00,,,0.00,,2013-06-19 21:52:00,
2013-06-19 17:01:00,90.0,73.0,29.86,ESE,119,10.0,12.0,58,0.00,,,0.00,,2013-06-19 22:01:00,
2013-06-19 17:11:00,90.0,74.0,29.87,ESE,121,8.0,13.0,60,0.00,,,0.00,,2013-06-19 22:11:00,
2013-06-19 17:22:00,90.0,73.0,29.87,SE,126,7.0,12.0,58,0.00,,,0.00,,2013-06-19 22:22:00,
2013-06-19 17:34:00,90.0,73.0,29.86,SE,127,7.0,15.0,58,0.00,,,0.00,,2013-06-19 22:34:00,
2013-06-19 17:43:00,90.0,73.0,29.86,SSE,149,5.0,10.0,57,0.00,,,0.00,,2013-06-19 22:43:00,
2013-06-19 17:53:00,89.0,72.0,29.86,SW,215,6.0,12.0,58,0.00,,,0.00,,2013-06-19 22:53:00,
2013-06-19 18:02:00,88.0,72.0,29.86,SSE,167,5.0,12.0,59,0.00,,,0.00,,2013-06-19 23:02:00,
2013-06-19 18:12:00,88.0,73.0,29.86,SSE,168,5.0,7.0,62,0.00,,,0.00,,2013-06-19 23:12:00,
2013-06-19 18:23:00,88.0,73.0,29.86,SSE,168,5.0,7.0,62,0.00,,,0.00,,2013-06-19 23:23:00,
2013-06-19 18:33:00,87.0,72.0,29.86,SE,143,3.0,5.0,62,0.00,,,0.00,,2013-06-19 23:33:00,
2013-06-19 18:43:00,87.0,74.0,29.86,SSE,149,3.0,5.0,65,0.00,,,0.00,,2013-06-19 23:43:00,
2013-06-19 18:52:00,87.0,74.0,29.86,SSE,149,3.0,5.0,65,0.00,,,0.00,,2013-06-19 23:52:00,
2013-06-19 19:01:00,87.0,74.0,29.86,SSE,149,3.0,5.0,65,0.00,,,0.00,,2013-06-20 00:01:00,
2013-06-19 19:12:00,86.0,73.0,29.85,SE,138,3.0,7.0,66,0.00,,,0.00,,2013-06-20 00:12:00,
2013-06-19 19:22:00,86.0,73.0,29.85,SE,138,3.0,7.0,66,0.00,,,0.00,,2013-06-20 00:22:00,
2013-06-19 19:33:00,86.0,73.0,29.85,SE,138,3.0,7.0,66,0.00,,,0.00,,2013-06-20 00:33:00,
2013-06-19 19:44:00,85.0,73.0,29.83,ESE,115,3.0,8.0,67,0.00,,,0.00,,2013-06-20 00:44:00,
2013-06-19 19:52:00,85.0,73.0,29.83,ESE,115,3.0,8.0,67,0.00,,,0.00,,2013-06-20 00:52:00,
2013-06-19 20:02:00,85.0,73.0,29.83,SE,140,4.0,6.0,68,0.00,,,0.00,,2013-06-20 01:02:00,
2013-06-19 20:11:00,85.0,73.0,29.83,SE,140,4.0,6.0,68,0.00,,,0.00,,2013-06-20 01:11:00,
2013-06-19 20:22:00,85.0,74.0,29.82,SE,137,7.0,12.0,69,0.00,,,0.00,,2013-06-20 01:22:00,
2013-06-19 20:33:00,85.0,73.0,29.83,SE,137,6.0,10.0,68,0.00,,,0.00,,2013-06-20 01:33:00,
2013-06-19 20:44:00,85.0,74.0,29.85,SE,133,4.0,10.0,69,0.00,,,0.00,,2013-06-20 01:44:00,
2013-06-19 20:52:00,85.0,74.0,29.87,ESE,114,3.0,7.0,69,0.00,,,0.00,,2013-06-20 01:52:00,
2013-06-19 21:02:00,85.0,74.0,29.87,ESE,114,3.0,7.0,69,0.00,,,0.00,,2013-06-20 02:02:00,
2013-06-19 21:11:00,85.0,74.0,29.87,ESE,114,3.0,7.0,69,0.00,,,0.00,,2013-06-20 02:11:00,
2013-06-19 21:24:00,83.0,73.0,29.86,East,101,2.0,5.0,73,0.00,,,0.00,,2013-06-20 02:24:00,
2013-06-19 21:33:00,83.0,74.0,29.86,East,82,3.0,5.0,75,0.00,,,0.00,,2013-06-20 02:33:00,
2013-06-19 21:43:00,83.0,74.0,29.86,East,82,3.0,5.0,75,0.00,,,0.00,,2013-06-20 02:43:00,
2013-06-19 21:52:00,82.0,74.0,29.86,East,90,1.0,5.0,77,0.00,,,0.00,,2013-06-20 02:52:00,
2013-06-19 22:02:00,82.0,74.0,29.86,East,90,1.0,5.0,77,0.00,,,0.00,,2013-06-20 03:02:00,
2013-06-19 22:11:00,82.0,74.0,29.86,East,90,1.0,5.0,77,0.00,,,0.00,,2013-06-20 03:11:00,
2013-06-19 22:22:00,81.0,73.0,29.87,ESE,107,3.0,5.0,78,0.00,,,0.00,,2013-06-20 03:22:00,
2013-06-19 22:33:00,81.0,73.0,29.87,ESE,106,3.0,6.0,77,0.00,,,0.00,,2013-06-20 03:33:00,
2013-06-19 22:43:00,81.0,73.0,29.88,ESE,113,3.0,6.0,76,0.00,,,0.00,,2013-06-20 03:43:00,
2013-06-19 22:54:00,81.0,73.0,29.88,ESE,113,3.0,6.0,76,0.00,,,0.00,,2013-06-20 03:54:00,
2013-06-19 23:01:00,81.0,73.0,29.88,ESE,113,3.0,6.0,76,0.00,,,0.00,,2013-06-20 04:01:00,
2013-06-19 23:11:00,80.0,73.0,29.90,ESE,121,3.0,5.0,79,0.00,,,0.00,,2013-06-20 04:11:00,
2013-06-19 23:22:00,79.0,72.0,29.90,SSE,147,2.0,3.0,79,0.00,,,0.00,,2013-06-20 04:22:00,
2013-06-19 23:34:00,79.0,73.0,29.91,ESE,103,2.0,3.0,81,0.00,,,0.00,,2013-06-20 04:34:00,
2013-06-19 23:43:00,79.0,73.0,29.91,ESE,103,2.0,3.0,81,0.00,,,0.00,,2013-06-20 04:43:00,
2013-06-19 23:53:00,79.0,73.0,29.91,ESE,117,3.0,5.0,81,0.00,,,0.00,,2013-06-20 04:53:00,